Simultaneous Nadir Overpasses (SNOs) Predictions

Prediction of SNOs between METOP-A and NPP Satellite Orbit:

Table of predicted SNOs for the next 14.0 days since TLE Epoch: 11/25/2014
Index Date (METOP-A) Time (METOP-A) Lat,Lon (METOP-A) SZA (METOP-A ) Date (NPP) Time (NPP) Lat,Lon (NPP) SZA (NPP ) Distance(km) Time Diff (sec)
1 11/29/2014 15:04:14 73.91, -51.52 95.37 11/29/2014 15:03:07 73.95, -54.35 95.46 87.37 67
2 11/29/2014 15:54:57 -73.87, 115.71 84.68 11/29/2014 15:53:49 -73.85, 113.21 84.65 77.30 68
3 11/29/2014 16:45:41 73.64, -77.49 95.12 11/29/2014 16:44:30 73.61, -78.92 95.11 45.01 71
4 11/29/2014 17:36:25 -73.55, 89.62 84.97 11/29/2014 17:35:13 -73.56, 88.51 84.94 34.95 72
5 11/29/2014 18:27:09 73.32,-103.56 94.82 11/29/2014 18:25:54 73.31,-103.63 94.82 2.58 75
6 11/29/2014 19:17:52 -73.28, 63.67 85.22 11/29/2014 19:16:38 -73.31, 63.68 85.18 3.39 74
7 11/29/2014 20:08:31 73.30,-128.95 94.81 11/29/2014 20:07:24 73.32,-129.03 94.84 3.20 67
8 11/29/2014 20:59:13 -73.31, 38.40 85.18 11/29/2014 20:58:08 -73.32, 38.29 85.16 3.65 65
9 11/29/2014 21:49:53 73.28,-154.33 94.80 11/29/2014 21:48:53 73.28,-154.31 94.80 0.93 60
10 11/29/2014 22:40:35 -73.29, 13.02 85.19 11/29/2014 22:39:37 -73.28, 13.01 85.20 1.63 58
11 11/29/2014 23:31:15 73.26,-179.71 94.80 11/29/2014 23:30:23 73.29,-179.70 94.82 2.58 52
12 11/30/2014 00:21:57 -73.27, -12.37 85.19 11/30/2014 00:21:07 -73.29, -12.38 85.18 1.55 50
13 11/30/2014 01:12:36 73.30, 155.01 94.84 11/30/2014 01:11:53 73.30, 154.91 94.84 3.35 43
14 11/30/2014 02:03:19 -73.26, -37.75 85.20 11/30/2014 02:02:36 -73.25, -37.67 85.21 2.93 43
15 11/30/2014 02:53:58 73.28, 129.63 94.83 11/30/2014 02:53:22 73.25, 129.63 94.81 2.45 36
16 11/30/2014 03:44:40 -73.24, -63.13 85.21 11/30/2014 03:44:05 -73.25, -63.06 85.19 3.20 35
17 11/30/2014 04:35:19 73.26, 104.25 94.82 11/30/2014 04:34:51 73.26, 104.23 94.83 0.73 28
18 11/30/2014 05:26:01 -73.27, -88.41 85.17 11/30/2014 05:25:35 -73.26, -88.45 85.17 1.43 26
19 11/30/2014 06:16:41 73.24, 78.86 94.81 11/30/2014 06:16:20 73.22, 78.95 94.80 3.48 21
20 11/30/2014 07:07:23 -73.25,-113.79 85.18 11/30/2014 07:07:05 -73.27,-113.84 85.15 3.08 18
21 11/30/2014 07:58:03 73.22, 53.48 94.81 11/30/2014 07:57:50 73.23, 53.56 94.82 2.97 13
22 11/30/2014 08:48:45 -73.23,-139.17 85.18 11/30/2014 08:48:34 -73.23,-139.12 85.18 1.64 11
23 11/30/2014 09:39:24 73.25, 28.20 94.85 11/30/2014 09:39:20 73.23, 28.17 94.84 1.67 4
24 11/30/2014 10:30:06 -73.26,-164.45 85.14 11/30/2014 10:30:04 -73.24,-164.52 85.16 3.22 2
25 11/30/2014 11:20:46 73.23, 2.82 94.84 11/30/2014 11:20:50 73.24, 2.78 94.86 2.36 4
26 11/30/2014 12:11:28 -73.24, 170.17 85.15 11/30/2014 12:11:34 -73.24, 170.09 85.14 2.56 6
27 11/30/2014 13:02:08 73.21, -22.56 94.83 11/30/2014 13:02:19 73.20, -22.50 94.82 1.96 11
28 11/30/2014 13:52:50 -73.22, 144.79 85.16 11/30/2014 13:53:03 -73.20, 144.81 85.17 1.94 13
29 11/30/2014 14:43:30 73.19, -47.95 94.82 11/30/2014 14:43:49 73.21, -47.90 94.84 2.98 19
30 11/30/2014 15:34:12 -73.20, 119.40 85.16 11/30/2014 15:34:33 -73.21, 119.42 85.15 1.41 21
31 11/30/2014 16:24:51 73.22, -73.22 94.86 11/30/2014 16:25:19 73.22, -73.29 94.86 2.23 28
32 11/30/2014 17:15:33 -73.23, 94.13 85.12 11/30/2014 17:16:03 -73.22, 94.03 85.14 3.50 30
33 11/30/2014 18:06:13 73.20, -98.60 94.86 11/30/2014 18:06:48 73.17, -98.57 94.83 2.67 35
34 11/30/2014 18:56:55 -73.21, 68.75 85.13 11/30/2014 18:57:32 -73.17, 68.74 85.17 3.67 37
35 11/30/2014 19:47:35 73.18,-123.99 94.85 11/30/2014 19:48:18 73.18,-123.96 94.85 1.02 43
36 11/30/2014 20:38:17 -73.19, 43.36 85.14 11/30/2014 20:39:02 -73.18, 43.35 85.15 0.67 45
37 11/30/2014 21:28:56 73.21,-149.26 94.89 11/30/2014 21:29:48 73.19,-149.36 94.87 3.56 52
38 11/30/2014 22:19:39 -73.17, 17.98 85.15 11/30/2014 22:20:32 -73.19, 17.96 85.13 2.59 53
39 11/30/2014 23:10:18 73.19,-174.64 94.88 11/30/2014 23:11:18 73.20,-174.75 94.89 3.57 60
40 12/01/2014 00:01:01 -73.15, -7.40 85.16 12/01/2014 00:02:01 -73.15, -7.32 85.16 2.63 60
41 12/01/2014 00:51:40 73.17, 159.97 94.87 12/01/2014 00:52:47 73.16, 159.97 94.86 1.19 67
42 12/01/2014 01:42:22 -73.18, -32.68 85.11 12/01/2014 01:43:31 -73.16, -32.71 85.14 2.73 69
43 12/01/2014 02:33:03 73.10, 134.48 94.82 12/01/2014 02:34:16 73.11, 134.69 94.82 7.01 73
44 12/01/2014 03:23:46 -73.06, -58.28 85.22 12/01/2014 03:25:00 -73.11, -58.00 85.17 11.03 74
45 12/01/2014 04:14:30 72.82, 108.56 94.57 12/01/2014 04:15:41 72.87, 109.83 94.58 42.14 71
46 12/01/2014 05:05:14 -72.74, -84.30 85.52 12/01/2014 05:06:24 -72.82, -82.75 85.47 51.95 70
47 12/01/2014 05:55:58 72.50, 82.55 94.27 12/01/2014 05:57:04 72.52, 85.17 94.23 87.60 66
48 12/01/2014 06:46:41 -72.46,-110.20 85.76 12/01/2014 06:47:47 -72.47,-107.42 85.82 93.11 66
